This is the latest recevied weather packets stored in our database for station/object KC0UFP. If no packets are shown the sender has not sent any weather packets the latest 10 day(s).
| Time | Temp. | Humidity | Pressure | Rain* | Wind** | Luminosity | Snow |
|---|---|---|---|---|---|---|---|
| 1788136113 | 87° F | 55% | 761.5 mmHg | 0 in | - | 5 W/m² | - |
| 1788135812 | 87° F | 55% | 761.6 mmHg | 0 in | - | 9 W/m² | - |
| 1788135508 | 88° F | 55% | 761.5 mmHg | 0 in | - | 15 W/m² | - |
| 1788135203 | 89° F | 54% | 761.5 mmHg | 0 in | - | 20 W/m² | - |
| 1788134901 | 89° F | 53% | 761.5 mmHg | 0 in | - | 26 W/m² | - |
| 1788134600 | 90° F | 50% | 761.5 mmHg | 0 in | - | 32 W/m² | - |
| 1788134298 | 90° F | 49% | 761.5 mmHg | 0 in | - | 38 W/m² | - |
| 1788133994 | 91° F | 48% | 761.5 mmHg | 0 in | - | 44 W/m² | - |
| 1788133689 | 92° F | 46% | 761.5 mmHg | 0 in | - | 50 W/m² | - |
| 1788133385 | 94° F | 44% | 761.5 mmHg | 0 in | - | 72 W/m² | - |
| 1788133080 | 94° F | 44% | 761.6 mmHg | 0 in | - | 85 W/m² | - |
| 1788132775 | 94° F | 43% | 761.7 mmHg | 0 in | - | 98 W/m² | - |
| 1788132471 | 94° F | 43% | 761.8 mmHg | 0 in | - | 111 W/m² | - |
| 1788132167 | 94° F | 42% | 761.8 mmHg | 0 in | - | 124 W/m² | - |
| 1788131863 | 94° F | 42% | 761.7 mmHg | 0 in | - | 135 W/m² | - |
| 1788131563 | 94° F | 42% | 761.8 mmHg | 0 in | - | 146 W/m² | - |
| 1788131257 | 95° F | 42% | 761.6 mmHg | 0 in | - | 160 W/m² | - |
| 1788130952 | 95° F | 42% | 761.8 mmHg | 0 in | - | 174 W/m² | - |
| 1788130646 | 95° F | 40% | 761.6 mmHg | 0 in | - | 191 W/m² | - |
| 1788130341 | 95° F | 41% | 761.5 mmHg | 0 in | - | 211 W/m² | - |
| 1788130040 | 94° F | 43% | 761.7 mmHg | 0 in | - | 228 W/m² | - |
| 1788129736 | 95° F | 42% | 761.7 mmHg | 0 in | - | 247 W/m² | - |
| 1788129433 | 95° F | 41% | 761.6 mmHg | 0 in | - | 265 W/m² | - |
| 1788129128 | 93° F | 43% | 761.8 mmHg | 0 in | - | 287 W/m² | - |
| 1788128823 | 95° F | 43% | 761.7 mmHg | 0 in | - | 303 W/m² | - |
* Rain latest hour (hover to see other rain measurements)
** Current wind speed in m/s (hover to see current wind gust speed)